TimeEDT,TemperatureF,Dew PointF,Humidity,Sea Level PressureIn,VisibilityMPH,Wind Direction,Wind SpeedMPH,Gust SpeedMPH,PrecipitationIn,Events,Conditions,WindDirDegrees,DateUTC
12:15 AM,75.2,75.2,100,30.00,10.0,Calm,Calm,-,N/A,,Clear,0,2013-07-26 04:15:00
12:35 AM,73.4,73.4,100,30.00,10.0,Calm,Calm,-,N/A,,Clear,0,2013-07-26 04:35:00
12:55 AM,75.2,75.2,100,30.00,10.0,NE,3.5,-,N/A,,Clear,40,2013-07-26 04:55:00
1:15 AM,75.2,75.2,100,30.00,10.0,NNE,4.6,-,N/A,,Clear,30,2013-07-26 05:15:00
1:35 AM,75.2,75.2,100,29.99,10.0,Calm,Calm,-,N/A,,Clear,0,2013-07-26 05:35:00
1:55 AM,75.2,75.2,100,30.00,10.0,Calm,Calm,-,N/A,,Clear,0,2013-07-26 05:55:00
2:15 AM,73.4,73.4,100,29.99,10.0,Calm,Calm,-,N/A,,Clear,0,2013-07-26 06:15:00
2:35 AM,73.4,73.4,100,29.99,10.0,Calm,Calm,-,N/A,,Clear,0,2013-07-26 06:35:00
2:55 AM,73.4,73.4,100,29.99,10.0,Calm,Calm,-,N/A,,Clear,0,2013-07-26 06:55:00
3:15 AM,71.6,71.6,100,29.99,10.0,Calm,Calm,-,N/A,,Clear,0,2013-07-26 07:15:00
3:35 AM,73.4,73.4,100,29.99,10.0,NE,3.5,-,N/A,,Clear,50,2013-07-26 07:35:00
3:55 AM,73.4,73.4,100,29.99,10.0,NE,4.6,-,N/A,,Clear,50,2013-07-26 07:55:00
4:15 AM,73.4,73.4,100,29.99,10.0,NE,4.6,-,N/A,,Clear,40,2013-07-26 08:15:00
4:35 AM,73.4,73.4,100,30.00,10.0,NE,6.9,-,N/A,,Clear,50,2013-07-26 08:35:00
4:55 AM,71.6,71.6,100,30.00,10.0,ENE,5.8,-,N/A,,Clear,60,2013-07-26 08:55:00
5:15 AM,71.6,71.6,100,30.00,10.0,ENE,6.9,-,N/A,,Clear,60,2013-07-26 09:15:00
5:35 AM,71.6,71.6,100,30.01,10.0,NE,4.6,-,N/A,,Clear,50,2013-07-26 09:35:00
5:55 AM,71.6,71.6,100,30.01,10.0,ENE,5.8,-,N/A,,Clear,60,2013-07-26 09:55:00
6:15 AM,71.6,71.6,100,30.02,10.0,ENE,4.6,-,N/A,,Clear,60,2013-07-26 10:15:00
6:35 AM,71.6,71.6,100,30.03,10.0,Calm,Calm,-,N/A,,Clear,0,2013-07-26 10:35:00
6:55 AM,71.6,71.6,100,30.03,10.0,Calm,Calm,-,N/A,,Clear,0,2013-07-26 10:55:00
7:15 AM,71.6,71.6,100,30.03,10.0,ENE,3.5,-,N/A,,Clear,60,2013-07-26 11:15:00
7:35 AM,73.4,73.4,100,30.03,10.0,ENE,6.9,-,N/A,,Clear,70,2013-07-26 11:35:00
7:55 AM,73.4,73.4,100,30.04,10.0,ENE,6.9,-,N/A,,Clear,70,2013-07-26 11:55:00
8:15 AM,75.2,75.2,100,30.05,10.0,East,6.9,-,N/A,,Clear,80,2013-07-26 12:15:00
8:35 AM,77.0,77.0,100,30.05,10.0,East,6.9,-,N/A,,Clear,80,2013-07-26 12:35:00
8:55 AM,77.0,77.0,100,30.06,10.0,ENE,6.9,-,N/A,,Scattered Clouds,70,2013-07-26 12:55:00
9:15 AM,78.8,77.0,94,30.06,10.0,East,6.9,-,N/A,,Mostly Cloudy,100,2013-07-26 13:15:00
9:35 AM,78.8,77.0,94,30.06,10.0,ENE,6.9,-,N/A,,Scattered Clouds,70,2013-07-26 13:35:00
9:55 AM,80.6,77.0,89,30.06,10.0,ESE,8.1,-,N/A,,Scattered Clouds,110,2013-07-26 13:55:00
10:15 AM,80.6,78.8,94,30.07,10.0,ESE,5.8,-,N/A,,Scattered Clouds,120,2013-07-26 14:15:00
10:35 AM,80.6,77.0,89,30.07,10.0,Calm,Calm,-,N/A,,Mostly Cloudy,0,2013-07-26 14:35:00
10:55 AM,80.6,78.8,94,30.08,10.0,SE,4.6,-,N/A,,Mostly Cloudy,140,2013-07-26 14:55:00
11:15 AM,82.4,77.0,84,30.08,10.0,East,4.6,-,N/A,,Scattered Clouds,90,2013-07-26 15:15:00
11:35 AM,82.4,77.0,84,30.08,10.0,South,4.6,-,N/A,,Scattered Clouds,170,2013-07-26 15:35:00
11:55 AM,84.2,77.0,79,30.08,10.0,South,3.5,-,N/A,,Scattered Clouds,190,2013-07-26 15:55:00
12:15 PM,84.2,75.2,74,30.07,10.0,Calm,Calm,-,N/A,,Scattered Clouds,0,2013-07-26 16:15:00
12:35 PM,86.0,73.4,66,30.07,10.0,East,4.6,-,N/A,,Scattered Clouds,90,2013-07-26 16:35:00
12:55 PM,86.0,73.4,66,30.06,10.0,NE,3.5,-,N/A,,Scattered Clouds,50,2013-07-26 16:55:00
1:15 PM,87.8,73.4,62,30.06,10.0,North,4.6,-,N/A,,Mostly Cloudy,10,2013-07-26 17:15:00
1:35 PM,86.0,73.4,66,30.06,10.0,ENE,4.6,-,N/A,,Mostly Cloudy,70,2013-07-26 17:35:00
1:55 PM,87.8,73.4,62,30.05,10.0,South,3.5,-,N/A,,Scattered Clouds,180,2013-07-26 17:55:00
2:15 PM,87.8,71.6,58,30.04,10.0,Calm,Calm,-,N/A,,Mostly Cloudy,0,2013-07-26 18:15:00
2:35 PM,87.8,73.4,62,30.04,10.0,East,4.6,-,N/A,,Scattered Clouds,100,2013-07-26 18:35:00
2:55 PM,82.4,75.2,79,30.05,10.0,East,17.3,-,N/A,,Overcast,100,2013-07-26 18:55:00
3:15 PM,77.0,77.0,100,30.06,3.0,NE,12.7,-,N/A,Rain,Heavy Rain,50,2013-07-26 19:15:00
3:35 PM,75.2,73.4,94,30.05,1.8,East,9.2,-,N/A,Rain,Heavy Rain,100,2013-07-26 19:35:00
3:55 PM,77.0,77.0,100,30.04,10.0,East,6.9,-,N/A,Rain,Light Rain,100,2013-07-26 19:55:00
4:15 PM,77.0,77.0,100,30.03,10.0,ESE,3.5,-,N/A,,Clear,120,2013-07-26 20:15:00
4:35 PM,80.6,75.2,84,30.02,10.0,Calm,Calm,-,N/A,,Clear,0,2013-07-26 20:35:00
4:55 PM,82.4,75.2,79,30.02,10.0,SE,3.5,-,N/A,,Clear,130,2013-07-26 20:55:00
5:15 PM,80.6,77.0,89,30.02,10.0,ESE,5.8,-,N/A,,Clear,110,2013-07-26 21:15:00
5:35 PM,82.4,77.0,84,30.03,10.0,ESE,6.9,-,N/A,,Clear,110,2013-07-26 21:35:00
5:55 PM,84.2,73.4,70,30.03,10.0,ESE,8.1,-,N/A,,Clear,120,2013-07-26 21:55:00
6:15 PM,82.4,77.0,84,30.03,10.0,ESE,6.9,-,N/A,,Clear,120,2013-07-26 22:15:00
6:35 PM,82.4,77.0,84,30.02,10.0,East,5.8,-,N/A,,Clear,100,2013-07-26 22:35:00
6:55 PM,82.4,77.0,84,30.03,10.0,ESE,5.8,-,N/A,,Clear,110,2013-07-26 22:55:00
7:15 PM,80.6,78.8,94,30.03,10.0,East,5.8,-,N/A,,Clear,100,2013-07-26 23:15:00
7:35 PM,80.6,78.8,94,30.03,10.0,East,4.6,-,N/A,,Scattered Clouds,100,2013-07-26 23:35:00
7:55 PM,78.8,78.8,100,30.03,10.0,East,4.6,-,N/A,,Scattered Clouds,100,2013-07-26 23:55:00
8:15 PM,78.8,78.8,100,30.02,10.0,ESE,5.8,-,N/A,,Scattered Clouds,110,2013-07-27 00:15:00
8:35 PM,78.8,78.8,100,30.02,10.0,SE,5.8,-,N/A,,Clear,130,2013-07-27 00:35:00
8:55 PM,77.0,77.0,100,30.02,10.0,ESE,5.8,-,N/A,,Clear,120,2013-07-27 00:55:00
9:15 PM,77.0,77.0,100,30.02,10.0,ESE,4.6,-,N/A,,Clear,110,2013-07-27 01:15:00
9:35 PM,77.0,77.0,100,30.03,10.0,ESE,4.6,-,N/A,,Clear,110,2013-07-27 01:35:00
9:55 PM,77.0,77.0,100,30.03,10.0,ESE,5.8,-,N/A,,Clear,120,2013-07-27 01:55:00
10:15 PM,77.0,77.0,100,30.05,10.0,SE,4.6,-,N/A,,Clear,130,2013-07-27 02:15:00
10:35 PM,75.2,75.2,100,30.06,10.0,SE,3.5,-,N/A,,Clear,130,2013-07-27 02:35:00
10:55 PM,75.2,75.2,100,30.06,10.0,SE,3.5,-,N/A,,Clear,130,2013-07-27 02:55:00
11:15 PM,75.2,-9999,N/A,30.06,10.0,ESE,4.6,-,N/A,,Clear,110,2013-07-27 03:15:00
11:35 PM,73.4,-9999,N/A,30.06,10.0,Calm,Calm,-,N/A,,Scattered Clouds,0,2013-07-27 03:35:00
11:55 PM,73.4,-9999,N/A,30.06,10.0,East,3.5,-,N/A,,Clear,100,2013-07-27 03:55:00